Temperature
22 21 21 21 24 26 28 30 31 31 30 30 29 29 28 27 26 24 23 22 21 21 21 21 20 20 20 20 20 19 20 20 19 19 19 19 19 19 19 19 19 19 19 19 19 19 19 19 19
22 21 22 24 26 28 29 31 31 30 30 30 29 28 28 26 25 23 22 22 21 21 20 20 20 20 20 20 20 20 20 19 19 19 19 19 19 19 19 19 19 19 19 19 19 19 19 19 19
22 23 24 27 29 30 30 31 31 31 30 30 29 28 27 25 24 23 22 22 21 21 20 21 20 20 20 20 20 20 19 19 19 19 19 19 19 19 19 19 19 19 19 19 19 19 19 19 19
22 25 26 29 30 31 32 32 32 31 30 30 29 27 25 24 24 23 22 22 21 20 20 20 20 20 20 20 20 20 19 19 19 19 19 19 19 19 19 19 19 19 19 19 19 19 19 19 19
25 27 29 30 31 32 33 33 32 31 30 30 28 27 25 24 24 23 23 22 21 21 20 20 20 20 20 20 20 19 19 19 19 19 19 19 19 19 19 19 19 19 19 19 19 19 19 19 19
27 29 29 31 32 33 33 32 32 31 30 29 28 26 24 24 23 23 23 22 22 21 20 20 20 20 20 20 20 19 19 19 19 19 19 19 19 19 19 19 19 19 19 19 19 19 19 19 19
29 30 31 32 32 32 33 33 32 31 30 29 28 27 24 24 23 23 23 22 22 21 20 20 20 20 20 20 20 19 19 19 19 19 19 19 19 19 19 19 19 19 19 19 19 19 19 19 19
31 32 32 32 32 32 33 32 32 31 30 29 28 27 25 24 23 23 23 22 22 21 20 20 20 20 20 20 19 19 19 19 19 19 19 19 19 19 19 19 19 19 19 19 19 19 18 18 19
32 32 32 33 32 33 33 33 32 31 30 29 28 27 25 24 24 23 23 22 22 21 21 20 20 20 20 19 19 19 19 19 19 19 19 19 19 19 19 19 19 19 19 19 19 19 18 18 18
33 32 33 34 34 34 33 33 32 31 30 28 27 26 25 24 24 24 23 22 22 21 21 21 20 20 20 19 19 19 19 19 19 19 19 19 19 18 18 19 19 19 19 19 19 18 18 18 18
34 33 34 35 34 34 34 33 32 31 30 29 27 26 25 24 24 24 23 23 22 21 21 21 20 20 20 19 19 19 19 19 19 19 19 19 19 19 18 19 18 18 18 18 18 18 18 18 18
35 35 35 35 34 34 33 33 32 31 30 28 27 26 25 25 24 24 23 22 22 21 21 20 20 20 20 20 19 19 19 19 19 19 19 19 19 19 18 18 18 18 18 18 18 18 18 18 18
35 35 35 35 34 34 33 33 32 31 29 28 27 26 25 25 24 24 23 22 22 21 20 20 20 20 20 19 19 19 19 19 19 19 19 19 19 19 19 18 18 18 18 18 18 18 18 18 18
34 34 35 35 34 34 33 33 32 30 29 28 27 27 26 25 25 24 23 22 21 21 20 20 20 20 19 19 19 19 19 19 19 19 19 19 19 19 19 18 18 18 18 18 18 18 18 18 18
34 34 34 35 35 34 33 32 32 30 29 28 28 27 26 25 24 24 23 22 21 21 20 20 20 20 19 19 19 19 19 19 19 19 19 19 19 19 19 19 19 19 18 18 18 18 18 18 18
34 33 33 35 36 35 33 31 32 31 30 29 28 27 26 25 25 24 23 22 21 21 20 20 20 20 20 19 19 19 19 19 19 19 19 19 19 19 19 19 19 18 18 18 18 18 18 18 18
33 32 33 34 36 35 33 32 32 31 30 29 28 27 26 25 25 24 23 22 21 21 20 20 20 20 19 19 19 19 19 19 19 19 19 19 19 19 19 19 19 18 18 18 18 18 18 18 18
32 33 33 34 35 35 33 32 32 32 31 30 29 27 26 25 25 24 23 22 21 21 20 20 20 20 19 19 19 19 19 19 19 19 19 19 19 19 19 19 19 18 18 18 18 18 18 18 18
34 33 33 34 35 34 33 33 33 32 31 30 29 28 27 26 25 24 23 23 21 21 20 20 20 20 19 19 19 19 19 19 19 19 19 19 19 19 19 18 18 18 18 18 18 18 18 18 18
34 33 33 34 35 34 33 33 33 32 31 30 29 28 27 26 25 24 24 23 22 21 20 20 20 20 19 19 19 19 19 19 19 19 19 19 19 19 19 19 18 18 18 18 18 18 18 18 18
34 33 33 33 34 34 33 32 32 32 32 31 30 29 28 27 25 24 24 23 22 21 21 20 20 20 20 20 19 19 19 19 19 19 19 19 19 19 19 19 19 18 18 18 18 18 18 18 18
33 34 34 34 33 33 33 30 31 32 31 31 30 29 28 27 26 25 24 23 22 21 21 20 20 20 20 20 19 19 19 19 19 19 19 19 19 19 19 19 19 19 18 18 18 18 18 18 18
34 35 34 34 33 32 32 31 31 31 31 31 31 30 29 28 26 25 24 23 22 22 21 20 20 20 20 20 20 19 19 19 19 19 19 19 19 19 19 19 19 19 19 18 18 18 18 18 18
34 34 33 33 32 31 32 31 30 31 31 32 31 30 29 28 27 25 24 23 23 22 21 20 20 20 20 20 20 19 19 19 19 19 19 19 19 19 19 19 19 19 19 19 18 18 18 18 18
34 32 31 31 30 30 32 31 30 32 32 32 32 30 29 28 27 26 24 23 22 22 21 21 20 20 20 20 20 19 19 19 19 19 19 19 19 19 19 19 19 19 19 18 18 18 18 18 18
33 33 31 30 30 31 32 31 31 32 32 32 31 30 29 28 27 26 25 24 22 22 21 21 20 20 20 20 20 19 19 19 19 19 19 19 19 19 19 19 19 18 18 18 18 18 18 18 18
32 32 33 32 31 31 31 31 30 31 32 32 31 30 29 28 27 26 25 24 22 22 21 21 20 20 20 20 20 19 19 19 19 19 19 19 19 19 19 19 18 18 18 18 18 18 18 18 18
33 33 33 31 30 30 30 30 29 29 29 31 31 29 28 27 26 25 24 24 23 22 21 20 20 20 20 19 19 19 19 19 19 19 19 19 19 19 18 18 18 18 18 18 18 18 18 18 18
32 32 32 32 31 30 29 29 30 29 29 30 30 29 28 27 26 25 24 23 23 22 21 20 20 19 19 19 19 19 19 19 19 19 19 19 19 18 18 18 18 18 18 18 18 18 18 17 17
33 32 32 31 30 31 30 29 31 30 30 30 29 28 27 26 26 25 24 23 22 22 21 20 20 19 19 19 19 18 19 19 19 19 18 18 18 18 18 18 18 18 18 18 18 18 17 17 17
Wind_Speed
11 11 9 5 4 0 10 13 14 13 13 13 13 12 15 14 10 8 7 11 13 15 15 16 16 16 15 15 15 15 15 15 16 16 17 17 17 17 17 17 17 17 16 15 14 13 13 12 12
10 11 8 5 2 6 11 12 13 13 12 12 13 14 15 14 13 10 9 10 12 14 15 15 16 15 15 15 15 15 15 15 16 16 16 16 17 16 16 16 16 15 15 14 13 12 12 11 11
12 12 6 4 5 10 12 12 12 12 11 11 12 14 11 10 11 8 9 11 12 13 14 16 16 16 15 15 15 14 15 15 15 15 15 16 15 16 15 16 15 15 14 13 12 11 11 11 10
7 6 5 1 9 13 12 10 11 12 11 11 11 11 10 10 9 10 11 12 13 13 15 16 17 16 15 15 14 14 14 15 14 14 15 15 14 15 15 15 14 14 13 12 11 10 10 10 9
9 5 3 5 12 12 12 11 11 12 11 12 13 13 11 10 12 12 11 12 12 13 14 16 17 16 15 14 14 14 14 14 14 14 14 15 15 15 15 15 14 13 12 11 10 9 9 8 7
5 4 1 7 12 11 11 10 11 12 12 11 13 13 10 8 10 11 10 10 12 13 14 15 17 17 15 14 14 14 14 14 14 14 14 14 14 15 14 14 13 13 12 11 10 9 8 7 6
7 5 3 8 10 10 11 11 11 12 12 10 11 12 9 9 9 10 10 10 11 13 13 12 14 15 15 14 14 14 13 13 13 13 13 13 14 14 14 14 13 12 12 11 10 8 7 6 5
6 4 3 9 10 10 10 11 12 12 11 9 8 9 9 10 11 11 11 11 11 12 12 12 13 13 13 13 13 14 13 12 12 12 12 12 13 13 14 13 12 12 12 11 10 8 7 7 6
6 3 5 9 9 9 9 11 10 11 12 13 13 13 13 13 13 12 11 10 10 11 10 9 11 11 12 12 13 13 13 12 11 11 12 12 11 12 12 12 12 12 12 11 10 9 8 8 9
3 1 7 9 8 8 9 9 8 9 10 12 13 15 14 12 11 11 11 10 10 9 8 7 9 9 10 10 11 10 10 10 9 8 10 9 8 10 11 12 13 12 12 12 11 10 9 9 8
0 3 6 8 7 7 9 9 8 8 9 10 12 13 12 12 10 11 11 10 10 9 7 8 7 7 7 7 7 6 7 8 8 8 8 6 6 7 9 9 10 11 12 10 10 10 8 7 5
1 3 4 6 6 7 8 9 10 11 11 12 13 13 11 10 9 9 10 10 10 9 8 7 7 6 5 5 5 6 5 5 5 7 7 6 4 4 5 5 7 8 8 7 6 6 5 5 5
1 1 2 4 5 6 7 8 9 11 11 12 12 12 11 11 10 9 9 10 10 9 8 7 7 5 4 3 3 5 5 5 7 7 7 6 4 4 4 4 4 5 5 5 3 3 3 3 2
3 3 1 2 3 4 6 6 6 10 11 12 11 10 10 10 11 10 9 9 9 9 8 7 7 6 4 3 2 2 4 5 6 6 7 6 5 4 3 4 3 3 4 5 4 2 2 2 2
5 6 4 4 4 4 6 5 6 10 12 11 11 10 10 10 11 10 9 9 10 8 7 6 7 6 4 3 3 4 4 5 4 5 8 7 6 5 4 4 4 4 5 4 3 2 1 2 3
7 7 6 5 4 6 4 4 7 11 12 11 10 10 10 8 9 10 10 9 10 9 7 5 5 6 5 3 3 3 3 4 4 6 7 8 7 7 5 4 4 5 5 4 3 3 2 2 2
9 9 7 4 3 4 4 5 9 10 11 11 11 10 10 8 8 9 10 10 10 8 7 5 4 5 4 3 2 3 3 3 4 5 6 7 8 8 6 4 4 5 4 3 4 3 2 2 2
7 7 5 4 4 4 4 5 9 10 11 11 11 11 10 10 9 9 9 10 10 9 7 5 4 4 4 3 2 2 2 3 3 4 4 7 6 7 6 4 5 4 4 3 3 2 2 2 2
9 9 8 4 1 1 3 5 8 9 7 10 11 11 11 10 10 9 9 11 11 9 8 6 4 4 3 2 2 3 3 3 3 3 5 6 5 5 4 3 4 4 4 5 4 4 3 3 2
8 9 9 7 2 4 4 4 6 9 10 9 11 12 12 11 11 9 9 10 11 10 8 7 5 5 4 3 2 2 2 2 3 3 4 6 6 5 5 4 4 4 4 4 4 4 3 3 3
9 8 10 8 5 5 5 6 6 8 8 9 10 12 12 13 13 11 10 9 9 10 9 7 6 5 4 3 3 2 2 2 2 3 4 5 5 5 3 3 3 3 4 5 5 5 5 4 3
9 9 10 10 9 8 7 6 6 8 9 10 10 11 12 13 13 12 11 10 10 10 9 7 6 5 4 4 4 4 3 3 3 3 3 4 5 5 5 4 4 4 4 4 5 5 5 5 4
10 10 10 12 11 11 10 7 5 7 8 10 11 11 11 12 13 13 13 11 10 10 10 8 7 5 4 4 4 3 2 2 2 3 4 4 4 4 5 5 4 4 4 4 5 4 5 4 4
10 11 12 12 10 12 11 9 5 5 6 8 10 10 10 11 12 11 11 9 9 10 10 9 8 6 5 4 3 3 2 2 2 2 2 3 2 3 4 4 4 4 4 4 5 5 6 6 5
10 11 9 8 8 10 9 7 4 5 5 6 8 9 9 9 10 11 11 9 7 9 9 9 9 7 6 5 4 3 2 2 2 3 3 3 2 2 3 4 4 4 4 4 4 5 6 5 6
11 12 10 10 9 7 6 4 3 5 6 6 7 8 9 9 8 9 10 10 8 8 9 9 9 8 7 6 4 3 2 2 2 2 2 2 2 3 3 3 3 4 4 4 3 4 5 5 6
11 11 12 13 15 11 6 2 3 5 6 7 8 8 8 7 7 8 8 9 9 8 7 7 8 8 7 6 5 4 3 2 2 2 2 2 2 2 2 2 3 3 3 3 3 3 4 4 5
13 12 9 9 9 10 7 4 4 6 4 5 7 8 7 7 6 7 7 7 9 9 8 6 6 8 7 6 5 5 4 3 2 2 2 1 1 1 1 1 2 2 2 3 3 4 4 4 4
11 13 11 9 10 11 7 2 4 7 6 5 6 8 8 7 7 7 6 6 8 8 9 8 6 7 6 6 5 4 4 4 3 2 2 2 2 1 2 2 2 2 2 3 3 4 4 4 4
12 12 12 10 9 10 10 2 4 6 6 5 6 8 8 7 7 7 7 6 6 7 7 7 7 7 6 6 5 4 4 3 3 3 3 2 2 2 2 2 2 3 3 2 3 4 3 3 4
Wind_Direction
194 210 217 239 250 188 56 56 56 50 56 55 55 60 59 53 56 83 96 96 105 114 120 120 117 119 119 119 119 120 120 121 119 119 120 120 120 120 120 120 120 120 119 118 116 114 113 113 114
215 221 226 244 259 66 59 57 60 57 58 66 66 67 68 62 71 91 97 105 111 117 123 121 122 122 121 122 121 121 123 124 123 122 123 124 125 126 126 124 123 122 121 120 118 117 116 117 119
241 243 251 239 53 63 65 59 66 70 60 67 71 62 59 67 75 94 106 117 113 114 118 122 126 125 124 124 125 125 126 126 127 128 128 127 129 129 128 126 124 124 123 123 123 121 121 122 124
239 237 240 249 62 63 66 67 71 74 63 62 75 74 67 68 87 102 113 114 113 117 119 126 129 127 126 126 126 128 128 127 128 130 131 131 132 131 129 128 127 126 126 127 127 126 126 128 133
240 265 250 68 71 69 64 62 67 72 70 68 77 86 80 76 97 107 110 108 114 117 120 128 131 128 129 129 129 131 132 131 132 132 133 135 134 133 133 134 134 132 132 131 132 131 131 134 139
260 251 296 65 66 67 68 65 65 72 74 74 86 91 87 91 102 106 105 107 111 115 118 126 133 131 131 132 132 134 136 137 137 137 137 138 140 141 142 141 141 139 140 141 141 139 140 141 150
255 293 27 69 72 65 64 64 64 74 73 74 88 93 100 97 107 108 104 103 110 116 121 128 135 137 137 136 137 137 138 141 143 144 145 145 146 149 150 148 148 148 150 154 152 151 154 158 169
266 301 35 69 69 67 68 68 65 70 76 76 79 94 110 115 114 110 104 102 105 114 123 132 137 141 142 141 144 142 143 144 148 150 153 155 155 157 158 155 156 159 162 164 165 168 173 177 193
282 303 48 65 67 69 70 73 75 81 82 76 74 93 110 116 116 114 106 104 107 111 117 128 135 139 143 143 146 149 149 151 154 159 165 168 168 165 166 159 163 168 172 173 175 180 187 193 206
233 35 52 64 67 69 74 77 86 90 86 87 91 100 114 119 122 117 115 113 110 107 111 114 125 133 137 138 140 154 156 156 164 164 171 182 176 165 159 163 172 177 178 179 185 193 200 205 205
163 68 55 65 64 68 75 73 72 84 82 97 110 113 119 126 126 118 116 116 116 115 113 111 114 115 123 129 140 148 148 156 166 170 176 170 161 158 158 166 176 185 185 189 189 199 205 201 203
6 52 58 63 63 63 72 75 68 69 84 104 116 123 124 125 120 117 114 112 115 113 110 108 106 104 109 128 140 143 148 153 154 165 174 167 164 156 156 160 173 187 188 186 191 202 192 193 209
301 2 89 93 82 77 76 75 83 89 100 113 120 127 133 135 125 117 113 114 113 113 114 115 115 110 109 117 146 147 147 150 154 165 177 169 155 155 149 153 170 187 179 173 197 193 172 173 207
320 310 292 127 126 120 104 95 97 107 117 119 121 123 124 129 128 123 122 122 120 120 121 121 125 117 120 135 148 136 146 151 152 161 161 164 162 150 148 156 161 188 191 185 194 194 175 175 196
278 272 263 221 192 143 104 95 118 128 127 127 128 131 127 128 127 125 124 123 124 123 126 130 136 129 131 148 166 158 159 150 156 156 158 162 167 158 157 164 167 188 198 189 186 201 184 200 210
256 257 246 231 193 143 152 146 145 143 138 137 137 135 132 132 134 130 132 129 127 128 131 137 135 135 146 160 174 164 165 161 162 158 163 172 173 171 174 180 179 189 192 182 177 193 200 216 224
248 246 236 227 197 172 173 157 152 154 147 145 145 143 143 149 146 137 139 138 135 132 133 133 127 134 147 167 174 171 161 165 161 167 174 174 177 178 188 185 179 191 184 183 196 172 192 220 239
262 269 257 233 192 185 167 152 160 167 160 153 152 150 152 156 156 147 147 144 141 138 137 138 139 133 152 163 174 168 162 171 176 177 175 165 177 184 192 190 181 193 186 187 194 186 206 216 232
277 295 293 285 224 230 188 180 176 168 165 157 157 156 156 155 152 151 156 151 146 144 145 147 153 151 164 176 186 181 178 183 178 178 168 164 183 187 191 195 173 189 193 194 192 189 211 221 221
264 273 276 273 254 284 285 235 186 164 171 172 164 161 160 158 156 155 157 156 156 154 154 157 161 170 191 183 198 193 190 192 179 172 161 175 187 191 196 184 195 189 189 187 195 199 214 232 218
267 267 275 279 277 261 256 256 206 182 175 169 171 165 165 166 163 163 163 159 157 157 162 165 166 176 192 185 198 193 172 198 178 171 169 180 189 186 198 187 201 202 206 194 197 207 216 222 234
266 275 286 284 283 277 252 249 213 197 181 176 179 170 168 169 166 165 167 168 167 163 161 154 159 171 177 180 201 194 184 183 180 173 171 180 189 188 196 198 204 207 212 207 211 205 216 216 227
274 286 284 280 277 278 269 262 223 192 187 182 178 173 169 172 169 168 169 170 170 166 162 158 153 158 162 176 185 194 191 185 184 172 171 186 191 191 202 203 200 202 215 220 222 217 220 225 230
272 278 269 263 268 264 257 254 244 197 179 178 171 170 167 169 163 162 164 164 167 164 161 161 156 158 157 160 169 183 192 196 206 201 187 195 196 199 199 203 196 204 217 223 226 223 225 227 236
249 260 265 260 244 254 252 240 208 159 164 162 162 160 162 161 157 156 158 160 164 166 163 164 160 165 166 169 170 179 194 204 215 224 217 218 211 211 204 210 198 210 219 224 225 225 229 233 237
249 254 260 274 278 277 264 246 180 147 152 150 149 150 156 160 158 157 160 159 168 170 167 163 163 166 170 173 172 176 186 210 218 235 235 229 230 219 208 202 196 207 224 232 224 233 229 227 233
254 257 266 273 278 280 267 214 144 138 145 144 140 138 146 151 151 151 149 154 162 163 160 160 160 165 170 174 171 168 174 198 211 225 225 249 253 241 184 191 205 209 219 227 233 239 239 233 231
249 261 268 267 278 279 262 242 186 162 172 155 146 139 136 140 141 142 143 156 165 167 158 158 161 165 167 171 181 179 184 196 206 235 220 219 249 258 213 209 224 226 229 233 236 248 240 235 235
240 246 256 271 276 279 278 285 143 158 177 163 149 135 133 135 146 147 145 154 158 162 159 157 161 162 172 178 181 181 183 196 204 223 238 235 249 252 238 237 239 243 249 253 252 259 254 243 240
248 251 251 256 264 276 281 250 132 149 136 137 132 127 131 135 140 137 138 138 147 158 157 159 164 171 176 176 178 183 185 193 201 218 227 229 235 247 248 245 250 257 256 255 258 264 265 258 252
Height
1483 1483 1484 1488 1486 1482 1477 1467 1463 1464 1464 1467 1469 1470 1474 1478 1484 1495 1496 1494 1495 1495 1496 1498 1499 1500 1502 1504 1506 1509 1511 1513 1515 1517 1519 1521 1523 1526 1528 1531 1533 1535 1537 1539 1541 1543 1544 1546 1547
1483 1485 1488 1487 1483 1485 1479 1467 1467 1467 1468 1470 1471 1474 1477 1483 1488 1493 1495 1496 1497 1498 1498 1500 1502 1503 1505 1507 1509 1511 1513 1515 1517 1519 1521 1523 1526 1528 1530 1532 1535 1537 1539 1541 1542 1544 1546 1547 1549
1484 1487 1487 1480 1475 1478 1478 1467 1467 1468 1470 1471 1474 1478 1483 1488 1492 1494 1497 1498 1499 1500 1501 1502 1504 1505 1507 1509 1511 1513 1515 1517 1519 1521 1523 1525 1527 1530 1532 1534 1536 1538 1540 1542 1544 1545 1547 1549 1550
1485 1486 1483 1475 1474 1468 1467 1465 1466 1469 1472 1473 1476 1482 1489 1492 1494 1496 1498 1499 1500 1501 1502 1504 1506 1507 1509 1511 1513 1515 1517 1519 1521 1523 1525 1527 1529 1531 1533 1536 1537 1540 1542 1544 1545 1547 1548 1550 1551
1487 1484 1478 1474 1470 1465 1464 1465 1467 1470 1473 1475 1479 1486 1492 1495 1496 1497 1499 1500 1501 1503 1504 1505 1507 1509 1511 1513 1514 1517 1519 1521 1522 1524 1527 1529 1530 1532 1535 1537 1539 1541 1543 1545 1546 1548 1550 1551 1553
1486 1479 1481 1479 1472 1466 1465 1467 1469 1471 1475 1478 1481 1487 1494 1496 1497 1498 1499 1501 1502 1504 1505 1506 1509 1511 1512 1514 1516 1518 1520 1522 1524 1526 1528 1530 1532 1534 1536 1538 1540 1542 1544 1545 1547 1549 1551 1552 1554
1483 1477 1476 1473 1473 1471 1467 1468 1470 1473 1477 1480 1482 1487 1494 1496 1497 1498 1500 1501 1503 1504 1505 1508 1510 1512 1514 1516 1517 1519 1522 1523 1526 1528 1530 1532 1533 1535 1538 1539 1541 1543 1544 1546 1548 1549 1551 1553 1554
1477 1474 1473 1471 1474 1473 1469 1470 1473 1476 1479 1482 1483 1488 1494 1497 1497 1499 1501 1502 1503 1505 1507 1509 1511 1513 1515 1517 1519 1521 1523 1525 1527 1529 1531 1533 1535 1536 1538 1540 1542 1543 1545 1546 1548 1549 1551 1553 1554
1474 1476 1476 1472 1472 1471 1469 1471 1475 1478 1481 1484 1486 1490 1494 1497 1499 1500 1502 1504 1506 1508 1510 1512 1514 1515 1517 1519 1521 1523 1524 1526 1528 1530 1532 1534 1536 1538 1539 1541 1542 1544 1545 1546 1548 1550 1551 1552 1554
1472 1477 1471 1466 1467 1468 1470 1472 1475 1478 1482 1486 1490 1494 1496 1499 1500 1502 1504 1506 1508 1510 1512 1514 1515 1517 1519 1521 1522 1524 1526 1527 1529 1531 1533 1535 1537 1539 1540 1541 1543 1544 1545 1546 1548 1550 1551 1552 1554
1467 1470 1466 1466 1467 1468 1470 1473 1475 1477 1482 1487 1492 1496 1498 1500 1502 1504 1506 1508 1509 1511 1513 1515 1517 1518 1520 1521 1523 1525 1527 1528 1530 1531 1533 1535 1537 1539 1540 1541 1543 1544 1545 1547 1548 1549 1550 1551 1553
1467 1466 1466 1467 1469 1470 1472 1474 1477 1480 1485 1489 1492 1496 1499 1501 1503 1505 1507 1509 1511 1513 1515 1516 1517 1519 1520 1522 1524 1525 1527 1528 1530 1531 1533 1535 1537 1538 1540 1541 1542 1544 1545 1547 1548 1549 1550 1551 1552
1468 1467 1467 1468 1469 1471 1473 1475 1479 1483 1487 1490 1493 1496 1499 1501 1504 1507 1509 1511 1512 1514 1516 1517 1518 1519 1520 1522 1524 1526 1527 1529 1530 1532 1533 1535 1537 1538 1540 1541 1542 1544 1545 1547 1548 1549 1550 1551 1552
1469 1468 1467 1467 1468 1470 1473 1476 1480 1485 1488 1491 1494 1497 1500 1502 1504 1507 1510 1512 1513 1515 1516 1518 1518 1519 1521 1522 1524 1526 1528 1529 1531 1532 1533 1535 1536 1538 1539 1541 1542 1544 1546 1547 1548 1549 1550 1551 1552
1471 1470 1468 1466 1465 1467 1472 1479 1479 1484 1487 1491 1494 1498 1501 1503 1505 1508 1510 1512 1514 1515 1517 1518 1519 1520 1521 1522 1524 1526 1528 1529 1531 1532 1533 1535 1536 1538 1539 1540 1542 1544 1545 1547 1548 1549 1550 1551 1551
1470 1473 1475 1464 1461 1465 1474 1486 1479 1482 1486 1490 1494 1498 1501 1504 1505 1508 1510 1512 1514 1515 1517 1518 1520 1520 1521 1522 1524 1526 1528 1529 1530 1532 1533 1534 1536 1537 1539 1540 1541 1543 1545 1546 1547 1548 1549 1550 1551
1474 1478 1474 1466 1459 1461 1469 1479 1477 1480 1484 1488 1493 1497 1500 1504 1506 1508 1510 1512 1514 1515 1517 1518 1519 1520 1521 1523 1524 1526 1527 1528 1530 1531 1532 1533 1535 1536 1538 1539 1540 1542 1544 1545 1547 1548 1549 1549 1550
1479 1474 1471 1468 1459 1460 1467 1473 1474 1477 1481 1486 1490 1495 1499 1502 1505 1507 1510 1512 1513 1515 1516 1518 1519 1520 1521 1522 1524 1525 1527 1528 1529 1530 1532 1533 1534 1535 1537 1538 1539 1541 1543 1544 1545 1547 1548 1548 1549
1468 1471 1472 1465 1456 1461 1467 1471 1471 1474 1478 1483 1488 1493 1497 1500 1504 1507 1509 1511 1513 1514 1515 1517 1518 1519 1520 1522 1523 1525 1526 1527 1528 1530 1531 1532 1533 1534 1535 1537 1538 1540 1541 1542 1544 1545 1546 1547 1548
1466 1472 1471 1463 1457 1462 1468 1469 1468 1471 1477 1480 1485 1490 1494 1499 1502 1505 1507 1510 1511 1513 1514 1515 1517 1518 1519 1521 1522 1524 1525 1526 1527 1528 1529 1530 1531 1533 1534 1535 1537 1538 1540 1541 1542 1543 1544 1546 1547
1466 1469 1468 1467 1461 1461 1468 1475 1471 1470 1473 1478 1482 1486 1491 1495 1499 1502 1505 1507 1510 1511 1513 1514 1515 1517 1518 1519 1520 1522 1524 1525 1526 1527 1528 1529 1531 1532 1533 1534 1536 1537 1538 1539 1541 1542 1542 1543 1545
1471 1461 1461 1463 1470 1473 1469 1490 1476 1469 1471 1475 1479 1483 1487 1492 1496 1499 1502 1505 1508 1510 1512 1513 1514 1515 1516 1516 1518 1520 1522 1523 1525 1526 1527 1528 1529 1530 1532 1533 1534 1535 1536 1538 1539 1540 1541 1541 1542
1463 1458 1460 1462 1468 1474 1470 1480 1477 1467 1473 1472 1475 1479 1484 1488 1492 1496 1500 1503 1506 1508 1510 1511 1513 1514 1514 1515 1516 1519 1521 1522 1524 1525 1527 1527 1528 1529 1530 1531 1532 1533 1534 1535 1536 1537 1538 1539 1540
1458 1460 1461 1461 1468 1486 1473 1480 1485 1469 1468 1468 1471 1476 1481 1485 1489 1494 1498 1501 1504 1506 1508 1510 1511 1512 1514 1515 1516 1518 1519 1521 1523 1524 1525 1526 1527 1527 1528 1529 1530 1531 1532 1533 1533 1534 1535 1536 1537
1460 1471 1483 1487 1488 1486 1464 1473 1476 1461 1461 1464 1468 1473 1478 1483 1487 1491 1495 1499 1502 1504 1506 1508 1509 1511 1512 1514 1515 1517 1519 1520 1521 1522 1523 1524 1525 1526 1526 1527 1528 1529 1529 1530 1531 1531 1532 1533 1534
1460 1466 1487 1498 1492 1480 1467 1474 1468 1457 1460 1464 1468 1472 1477 1482 1485 1489 1493 1496 1500 1502 1505 1507 1508 1509 1511 1513 1514 1516 1517 1519 1519 1520 1522 1522 1523 1524 1524 1525 1526 1527 1527 1528 1528 1528 1529 1530 1530
1462 1464 1459 1471 1474 1481 1474 1468 1465 1460 1461 1464 1467 1472 1477 1481 1485 1488 1491 1495 1498 1501 1503 1505 1507 1508 1509 1511 1513 1514 1515 1517 1517 1518 1519 1520 1520 1522 1522 1523 1524 1524 1525 1525 1526 1526 1526 1526 1527
1455 1457 1462 1473 1488 1491 1481 1476 1476 1470 1468 1465 1468 1472 1477 1481 1485 1488 1490 1494 1497 1499 1501 1504 1505 1506 1508 1510 1511 1512 1513 1514 1516 1517 1517 1517 1518 1519 1520 1520 1521 1521 1522 1522 1523 1523 1523 1524 1524
1458 1460 1462 1465 1468 1483 1491 1485 1462 1465 1465 1466 1469 1473 1477 1481 1485 1488 1491 1493 1496 1498 1501 1501 1503 1505 1507 1508 1509 1511 1511 1512 1513 1514 1515 1515 1516 1516 1517 1517 1518 1519 1519 1519 1520 1520 1520 1520 1520
1451 1454 1459 1473 1476 1471 1477 1481 1457 1460 1463 1466 1469 1474 1478 1481 1484 1488 1490 1492 1494 1496 1500 1501 1503 1504 1505 1507 1508 1509 1510 1510 1511 1511 1512 1513 1513 1514 1514 1514 1515 1516 1516 1516 1516 1517 1517 1517 1517